Time,TemperatureF,DewpointF,PressureIn,WindDirection,WindDirectionDegrees,WindSpeedMPH,WindSpeedGustMPH,Humidity,HourlyPrecipIn,Conditions,Clouds,dailyrainin,SolarRadiationWatts/m^2,SoftwareType,DateUTC
2013-02-17 00:21:00,31.0,17.0,-100.00,North,358,4.0,11.0,55,0.00,,,0.00,0.000000,,2013-02-17 09:21:00,
2013-02-17 00:31:00,31.0,17.0,-100.00,North,358,4.0,11.0,55,0.00,,,0.00,0.000000,,2013-02-17 09:31:00,
2013-02-17 00:41:00,31.0,17.0,-100.00,North,358,4.0,11.0,55,0.00,,,0.00,0.000000,,2013-02-17 09:41:00,
2013-02-17 00:51:00,31.0,17.0,-100.00,North,358,4.0,11.0,55,0.00,,,0.00,0.000000,,2013-02-17 09:51:00,
2013-02-17 01:21:00,33.0,18.0,-100.00,NNE,31,4.0,14.0,53,0.00,,,0.00,0.000000,,2013-02-17 10:21:00,
2013-02-17 01:31:00,33.0,18.0,-100.00,NNE,31,4.0,14.0,53,0.00,,,0.00,0.000000,,2013-02-17 10:31:00,
2013-02-17 01:41:00,33.0,18.0,-100.00,NNE,31,4.0,14.0,53,0.00,,,0.00,0.000000,,2013-02-17 10:41:00,
2013-02-17 01:51:00,33.0,18.0,-100.00,NNE,31,4.0,14.0,53,0.00,,,0.00,0.000000,,2013-02-17 10:51:00,
2013-02-17 02:21:00,33.0,18.0,-100.00,North,11,5.0,13.0,53,0.00,,,0.00,0.000000,,2013-02-17 11:21:00,
2013-02-17 02:32:00,33.0,18.0,-100.00,North,11,5.0,13.0,53,0.00,,,0.00,0.000000,,2013-02-17 11:32:00,
2013-02-17 02:41:00,33.0,18.0,-100.00,North,11,5.0,13.0,53,0.00,,,0.00,0.000000,,2013-02-17 11:41:00,
2013-02-17 02:52:00,33.0,18.0,-100.00,North,11,5.0,13.0,53,0.00,,,0.00,0.000000,,2013-02-17 11:52:00,
2013-02-17 03:22:00,33.0,19.0,-100.00,North,5,3.0,13.0,57,0.00,,,0.00,0.000000,,2013-02-17 12:22:00,
2013-02-17 03:32:00,33.0,19.0,-100.00,North,5,3.0,13.0,57,0.00,,,0.00,0.000000,,2013-02-17 12:32:00,
2013-02-17 03:42:00,33.0,19.0,-100.00,North,5,3.0,13.0,57,0.00,,,0.00,0.000000,,2013-02-17 12:42:00,
2013-02-17 03:52:00,33.0,19.0,-100.00,North,5,3.0,13.0,57,0.00,,,0.00,0.000000,,2013-02-17 12:52:00,
2013-02-17 04:21:00,33.0,20.0,-100.00,North,6,2.0,8.0,59,0.00,,,0.00,0.000000,,2013-02-17 13:21:00,
2013-02-17 04:32:00,33.0,20.0,-100.00,North,6,2.0,8.0,59,0.00,,,0.00,0.000000,,2013-02-17 13:32:00,
2013-02-17 04:41:00,33.0,20.0,-100.00,North,6,2.0,8.0,59,0.00,,,0.00,0.000000,,2013-02-17 13:41:00,
2013-02-17 04:51:00,33.0,20.0,-100.00,North,6,2.0,8.0,59,0.00,,,0.00,0.000000,,2013-02-17 13:51:00,
2013-02-17 05:21:00,33.0,20.0,-100.00,NNE,27,4.0,9.0,59,0.00,,,0.00,0.000000,,2013-02-17 14:21:00,
2013-02-17 05:32:00,33.0,20.0,-100.00,NNE,27,4.0,9.0,59,0.00,,,0.00,0.000000,,2013-02-17 14:32:00,
2013-02-17 05:42:00,33.0,20.0,-100.00,NNE,27,4.0,9.0,59,0.00,,,0.00,0.000000,,2013-02-17 14:42:00,
2013-02-17 05:52:00,33.0,20.0,-100.00,NNE,27,4.0,9.0,59,0.00,,,0.00,0.000000,,2013-02-17 14:52:00,
2013-02-17 06:21:00,33.0,20.0,-100.00,North,0,4.0,11.0,59,0.00,,,0.00,0.000000,,2013-02-17 15:21:00,
2013-02-17 06:31:00,33.0,20.0,-100.00,North,0,4.0,11.0,59,0.00,,,0.00,0.000000,,2013-02-17 15:31:00,
2013-02-17 06:41:00,33.0,20.0,-100.00,North,0,4.0,11.0,59,0.00,,,0.00,0.000000,,2013-02-17 15:41:00,
2013-02-17 06:52:00,33.0,20.0,-100.00,North,0,4.0,11.0,59,0.00,,,0.00,0.000000,,2013-02-17 15:52:00,
2013-02-17 07:21:00,33.0,20.0,-100.00,North,10,3.0,10.0,59,0.00,,,-99.99,0.000000,,2013-02-17 16:21:00,
2013-02-17 07:31:00,33.0,20.0,-100.00,North,10,3.0,10.0,59,0.00,,,-99.99,0.000000,,2013-02-17 16:31:00,
2013-02-17 07:41:00,33.0,20.0,-100.00,North,10,3.0,10.0,59,0.00,,,-99.99,0.000000,,2013-02-17 16:41:00,
2013-02-17 07:51:00,33.0,20.0,-100.00,North,10,3.0,10.0,59,0.00,,,-99.99,0.000000,,2013-02-17 16:51:00,
2013-02-17 08:21:00,32.0,20.0,-100.00,SSE,159,1.0,5.0,61,0.00,,,-99.99,0.000000,,2013-02-17 17:21:00,
2013-02-17 08:32:00,32.0,20.0,-100.00,SSE,159,1.0,5.0,61,0.00,,,-99.99,0.000000,,2013-02-17 17:32:00,
2013-02-17 08:41:00,32.0,20.0,-100.00,SSE,159,1.0,5.0,61,0.00,,,-99.99,0.000000,,2013-02-17 17:41:00,
2013-02-17 08:52:00,32.0,20.0,-100.00,SSE,159,1.0,5.0,61,0.00,,,-99.99,0.000000,,2013-02-17 17:52:00,
2013-02-17 09:21:00,33.0,23.0,-100.00,North,9,3.0,8.0,67,0.00,,,0.00,3.000000,,2013-02-17 18:21:00,
2013-02-17 09:33:00,33.0,23.0,-100.00,North,9,3.0,8.0,67,0.00,,,0.00,3.000000,,2013-02-17 18:33:00,
2013-02-17 09:42:00,33.0,23.0,-100.00,North,9,3.0,8.0,67,0.00,,,0.00,3.000000,,2013-02-17 18:42:00,
2013-02-17 09:52:00,33.0,23.0,-100.00,North,9,3.0,8.0,67,0.00,,,0.00,3.000000,,2013-02-17 18:52:00,
2013-02-17 10:21:00,32.0,22.0,-100.00,NW,316,2.0,9.0,65,0.00,,,0.00,23.000000,,2013-02-17 19:21:00,
2013-02-17 10:32:00,32.0,22.0,-100.00,NW,316,2.0,9.0,65,0.00,,,0.00,23.000000,,2013-02-17 19:32:00,
2013-02-17 10:41:00,32.0,22.0,-100.00,NW,316,2.0,9.0,65,0.00,,,0.00,23.000000,,2013-02-17 19:41:00,
2013-02-17 10:51:00,32.0,22.0,-100.00,NW,316,2.0,9.0,65,0.00,,,0.00,23.000000,,2013-02-17 19:51:00,
2013-02-17 11:21:00,34.0,26.0,-100.00,WNW,299,1.0,5.0,72,0.00,,,0.00,52.000000,,2013-02-17 20:21:00,
2013-02-17 11:32:00,34.0,26.0,-100.00,WNW,299,1.0,5.0,72,0.00,,,0.00,52.000000,,2013-02-17 20:32:00,
2013-02-17 11:42:00,34.0,26.0,-100.00,WNW,299,1.0,5.0,72,0.00,,,0.00,52.000000,,2013-02-17 20:42:00,
2013-02-17 11:52:00,34.0,26.0,-100.00,WNW,299,1.0,5.0,72,0.00,,,0.00,52.000000,,2013-02-17 20:52:00,
2013-02-17 12:21:00,35.0,26.0,-100.00,SSE,167,1.0,6.0,68,0.00,,,0.00,74.000000,,2013-02-17 21:21:00,
2013-02-17 12:31:00,35.0,26.0,-100.00,SSE,167,1.0,6.0,68,0.00,,,0.00,74.000000,,2013-02-17 21:31:00,
2013-02-17 12:41:00,35.0,26.0,-100.00,SSE,167,1.0,6.0,68,0.00,,,0.00,74.000000,,2013-02-17 21:41:00,
2013-02-17 12:52:00,35.0,26.0,-100.00,SSE,167,1.0,6.0,68,0.00,,,0.00,74.000000,,2013-02-17 21:52:00,
2013-02-17 13:21:00,35.0,24.0,-100.00,West,266,2.0,6.0,65,0.00,,,0.00,64.000000,,2013-02-17 22:21:00,
2013-02-17 13:32:00,35.0,24.0,-100.00,West,266,2.0,6.0,65,0.00,,,0.00,64.000000,,2013-02-17 22:32:00,
2013-02-17 13:41:00,35.0,24.0,-100.00,West,266,2.0,6.0,65,0.00,,,0.00,64.000000,,2013-02-17 22:41:00,
2013-02-17 13:52:00,35.0,24.0,-100.00,West,266,2.0,6.0,65,0.00,,,0.00,64.000000,,2013-02-17 22:52:00,
2013-02-17 14:21:00,30.0,26.0,-100.00,West,279,2.0,10.0,84,0.00,,,0.00,46.000000,,2013-02-17 23:21:00,
2013-02-17 14:31:00,30.0,26.0,-100.00,West,279,2.0,10.0,84,0.00,,,0.00,46.000000,,2013-02-17 23:31:00,
2013-02-17 14:41:00,30.0,26.0,-100.00,West,279,2.0,10.0,84,0.00,,,0.00,46.000000,,2013-02-17 23:41:00,
2013-02-17 14:52:00,30.0,26.0,-100.00,West,279,2.0,10.0,84,0.00,,,0.00,46.000000,,2013-02-17 23:52:00,
2013-02-17 15:22:00,29.0,27.0,-100.00,WNW,292,2.0,6.0,91,0.00,,,0.00,32.000000,,2013-02-18 00:22:00,
2013-02-17 15:31:00,29.0,27.0,-100.00,WNW,292,2.0,6.0,91,0.00,,,0.00,32.000000,,2013-02-18 00:31:00,
2013-02-17 15:41:00,29.0,27.0,-100.00,WNW,292,2.0,6.0,91,0.00,,,0.00,32.000000,,2013-02-18 00:41:00,
2013-02-17 15:52:00,29.0,27.0,-100.00,WNW,292,2.0,6.0,91,0.00,,,0.00,32.000000,,2013-02-18 00:52:00,
2013-02-17 16:21:00,28.0,26.0,-100.00,WNW,301,2.0,7.0,92,0.00,,,0.00,19.000000,,2013-02-18 01:21:00,
2013-02-17 16:31:00,28.0,26.0,-100.00,WNW,301,2.0,7.0,92,0.00,,,0.00,19.000000,,2013-02-18 01:31:00,
2013-02-17 16:41:00,28.0,26.0,-100.00,WNW,301,2.0,7.0,92,0.00,,,0.00,19.000000,,2013-02-18 01:41:00,
2013-02-17 16:51:00,28.0,26.0,-100.00,WNW,301,2.0,7.0,92,0.00,,,0.00,19.000000,,2013-02-18 01:51:00,
2013-02-17 17:21:00,27.0,25.0,-100.00,NNE,15,2.0,9.0,92,0.00,,,0.00,13.000000,,2013-02-18 02:21:00,
2013-02-17 17:32:00,27.0,25.0,-100.00,NNE,15,2.0,9.0,92,0.00,,,0.00,13.000000,,2013-02-18 02:32:00,
2013-02-17 17:41:00,27.0,25.0,-100.00,NNE,15,2.0,9.0,92,0.00,,,0.00,13.000000,,2013-02-18 02:41:00,
2013-02-17 17:52:00,27.0,25.0,-100.00,NNE,15,2.0,9.0,92,0.00,,,0.00,13.000000,,2013-02-18 02:52:00,
2013-02-17 18:21:00,26.0,23.0,-100.00,NW,309,2.0,10.0,90,0.00,,,0.00,4.000000,,2013-02-18 03:21:00,
2013-02-17 18:31:00,26.0,23.0,-100.00,NW,309,2.0,10.0,90,0.00,,,0.00,4.000000,,2013-02-18 03:31:00,
2013-02-17 18:42:00,26.0,23.0,-100.00,NW,309,2.0,10.0,90,0.00,,,0.00,4.000000,,2013-02-18 03:42:00,
2013-02-17 18:51:00,26.0,23.0,-100.00,NW,309,2.0,10.0,90,0.00,,,0.00,4.000000,,2013-02-18 03:51:00,
2013-02-17 19:21:00,26.0,22.0,-100.00,NW,304,3.0,9.0,86,0.00,,,0.00,0.000000,,2013-02-18 04:21:00,
2013-02-17 19:32:00,26.0,22.0,-100.00,NW,304,3.0,9.0,86,0.00,,,0.00,0.000000,,2013-02-18 04:32:00,
2013-02-17 19:41:00,26.0,22.0,-100.00,NW,304,3.0,9.0,86,0.00,,,0.00,0.000000,,2013-02-18 04:41:00,
2013-02-17 19:51:00,26.0,22.0,-100.00,NW,304,3.0,9.0,86,0.00,,,0.00,0.000000,,2013-02-18 04:51:00,
2013-02-17 20:21:00,25.0,21.0,-100.00,WNW,299,3.0,9.0,86,0.00,,,0.00,0.000000,,2013-02-18 05:21:00,
2013-02-17 20:31:00,25.0,21.0,-100.00,WNW,299,3.0,9.0,86,0.00,,,0.00,0.000000,,2013-02-18 05:31:00,
2013-02-17 20:41:00,25.0,21.0,-100.00,WNW,299,3.0,9.0,86,0.00,,,0.00,0.000000,,2013-02-18 05:41:00,
2013-02-17 20:51:00,25.0,21.0,-100.00,WNW,299,3.0,9.0,86,0.00,,,0.00,0.000000,,2013-02-18 05:51:00,
2013-02-17 21:21:00,25.0,22.0,-100.00,West,274,3.0,10.0,87,0.00,,,0.00,0.000000,,2013-02-18 06:21:00,
2013-02-17 21:31:00,25.0,22.0,-100.00,West,274,3.0,10.0,87,0.00,,,0.00,0.000000,,2013-02-18 06:31:00,
2013-02-17 21:41:00,25.0,22.0,-100.00,West,274,3.0,10.0,87,0.00,,,0.00,0.000000,,2013-02-18 06:41:00,
2013-02-17 21:51:00,25.0,22.0,-100.00,West,274,3.0,10.0,87,0.00,,,0.00,0.000000,,2013-02-18 06:51:00,
2013-02-17 22:21:00,26.0,23.0,-100.00,WNW,283,2.0,8.0,90,0.00,,,0.00,0.000000,,2013-02-18 07:21:00,
2013-02-17 22:31:00,26.0,23.0,-100.00,WNW,283,2.0,8.0,90,0.00,,,0.00,0.000000,,2013-02-18 07:31:00,
2013-02-17 22:42:00,26.0,23.0,-100.00,WNW,283,2.0,8.0,90,0.00,,,0.00,0.000000,,2013-02-18 07:42:00,
2013-02-17 22:51:00,26.0,23.0,-100.00,WNW,283,2.0,8.0,90,0.00,,,0.00,0.000000,,2013-02-18 07:51:00,
2013-02-17 23:21:00,25.0,22.0,-100.00,WNW,296,3.0,9.0,87,0.00,,,0.00,0.000000,,2013-02-18 08:21:00,
2013-02-17 23:32:00,25.0,22.0,-100.00,WNW,296,3.0,9.0,87,0.00,,,0.00,0.000000,,2013-02-18 08:32:00,
2013-02-17 23:42:00,25.0,22.0,-100.00,WNW,296,3.0,9.0,87,0.00,,,0.00,0.000000,,2013-02-18 08:42:00,
2013-02-17 23:52:00,25.0,22.0,-100.00,WNW,296,3.0,9.0,87,0.00,,,0.00,0.000000,,2013-02-18 08:52:00,